Lapse_Rate
5.5 5.6 5.7 5.7 5.7 5.7 5.6 5.7 6.0 6.0 6.0 6.1 6.1 6.1 6.1 6.1 6.3 6.7 6.7 6.6 6.7 7.0 6.7 6.7 6.2 5.6 5.5 5.3 5.2 5.3 5.4 5.4 5.7 5.4 5.1 5.1 5.4 4.8 5.3 5.0 4.7 4.9 5.8 5.6 5.3
5.6 5.6 5.7 5.9 5.9 5.8 5.7 5.6 5.7 6.0 6.1 6.2 6.2 6.2 6.3 6.3 6.5 6.4 6.8 6.7 6.7 6.7 6.9 6.7 6.4 5.7 5.3 6.0 5.6 5.7 5.8 5.5 5.8 6.0 5.8 5.2 5.5 5.4 5.0 4.8 4.6 4.8 4.8 4.9 5.0
5.7 5.8 5.8 5.7 5.9 6.0 6.0 5.8 5.7 5.8 5.9 6.2 6.2 6.3 6.4 6.5 6.6 6.4 6.7 6.7 6.7 6.6 6.6 6.0 5.8 5.4 5.1 5.7 6.1 6.1 6.0 6.2 5.5 5.9 5.7 5.4 5.5 5.3 5.2 5.0 4.7 5.4 5.1 4.9 5.0
6.0 6.0 6.0 6.0 6.0 6.1 6.0 6.0 6.0 5.8 5.9 5.9 6.2 6.3 6.5 6.6 6.6 6.7 6.8 6.7 6.7 6.5 6.5 6.4 6.5 6.0 5.4 5.9 6.1 5.8 6.3 6.1 5.6 5.8 6.2 5.8 5.9 5.8 5.8 5.8 5.3 5.6 5.6 5.1 4.9
5.9 5.9 5.9 6.0 6.0 6.0 6.2 6.1 5.9 5.9 5.9 6.0 6.0 6.2 6.3 6.8 6.5 6.4 6.8 6.9 6.7 6.7 6.8 6.9 6.8 6.4 6.1 6.2 6.0 6.1 6.1 6.2 5.6 5.7 6.3 6.3 6.1 6.2 5.9 5.9 5.1 5.2 5.3 5.3 5.3
5.6 5.6 5.8 5.9 6.0 5.9 6.0 6.0 6.0 5.9 5.8 5.9 6.0 6.1 6.3 6.5 6.7 6.6 6.5 6.9 6.8 6.7 6.8 7.0 7.2 6.6 6.2 6.0 5.6 5.9 6.3 6.1 5.9 5.9 6.2 6.2 5.8 5.9 5.8 5.7 5.1 5.0 5.1 5.1 4.9
5.4 5.3 5.4 5.6 5.8 5.8 5.8 6.0 5.9 6.0 5.9 5.8 5.8 6.2 6.3 6.1 6.5 6.9 6.6 6.7 6.9 6.7 7.1 7.2 6.6 6.3 6.1 6.1 6.3 6.1 6.6 6.4 6.3 6.3 6.2 6.1 5.9 5.8 6.2 5.7 5.3 5.1 4.7 4.5 4.7
5.4 5.4 5.5 5.5 5.7 5.8 5.9 5.9 6.0 5.8 6.1 5.9 5.7 5.9 6.4 5.7 6.4 6.8 6.8 6.8 6.8 6.9 6.9 6.7 6.4 6.2 6.2 6.2 6.1 5.9 6.2 6.5 6.2 6.4 6.5 6.4 5.7 5.4 5.5 5.3 5.1 5.3 5.1 4.9 4.6
5.6 5.5 5.6 5.6 5.6 5.8 5.9 5.8 5.7 5.8 5.8 6.1 6.0 5.9 6.0 6.0 6.8 6.6 6.6 6.8 6.7 6.7 6.8 6.5 6.4 6.3 6.3 6.2 6.2 6.4 6.7 7.0 6.7 6.9 6.6 6.3 6.2 6.0 5.3 5.4 5.3 5.3 5.2 5.1 4.9
5.4 5.7 5.6 5.7 5.7 5.8 5.6 5.4 5.4 5.4 5.6 5.7 5.9 6.0 5.8 6.1 6.3 6.7 6.5 6.7 6.8 6.4 6.0 6.4 6.4 6.5 6.6 6.3 6.6 6.9 7.1 7.3 6.7 6.6 6.4 6.4 6.4 7.0 6.2 5.9 5.7 5.3 5.4 5.0 4.8
5.7 5.8 5.9 5.7 5.6 5.5 5.2 5.1 5.3 5.5 5.4 5.4 5.6 6.0 5.8 5.6 5.4 6.3 6.4 6.6 6.1 5.9 6.2 6.2 6.4 6.9 7.1 6.9 7.5 7.6 7.6 7.9 7.6 7.1 7.1 6.8 6.9 7.3 6.5 5.5 5.6 5.7 5.2 5.1 5.0
5.9 6.0 6.0 5.8 5.6 5.4 5.0 4.9 5.0 4.8 5.8 5.7 6.2 5.9 5.8 5.7 5.5 5.8 6.0 6.0 5.8 5.9 6.2 5.9 6.6 7.4 7.4 7.3 7.7 7.7 7.7 7.8 8.0 7.3 7.7 7.1 7.0 6.5 6.7 6.4 5.9 5.9 5.4 5.3 5.0
6.2 6.1 6.0 5.9 5.9 5.9 5.4 5.3 5.3 5.2 5.9 6.5 6.5 6.3 6.0 5.9 6.3 6.0 5.6 5.8 6.0 6.1 5.9 6.0 7.3 7.2 7.3 7.3 7.4 7.7 7.8 7.9 8.0 7.7 7.7 7.4 6.7 7.0 6.3 6.0 6.1 5.8 5.7 5.2 5.2
6.5 6.2 6.2 6.2 6.3 6.7 6.4 6.3 6.0 6.3 6.5 7.1 7.0 6.8 6.4 6.3 6.2 6.3 6.0 6.1 6.2 6.1 6.2 6.3 7.0 6.8 7.0 7.3 7.5 7.4 8.2 8.2 8.4 8.5 8.2 7.7 7.5 7.1 6.9 6.4 6.0 6.1 5.8 5.6 5.9
6.4 6.4 6.4 6.7 6.8 6.8 6.9 7.0 7.1 7.3 6.6 7.6 7.7 7.4 7.0 6.8 6.7 6.4 6.6 6.4 6.5 6.6 6.4 6.7 6.9 6.8 6.7 7.2 7.6 7.5 8.3 8.6 8.8 8.6 8.1 8.0 7.8 7.9 7.0 6.6 6.6 6.3 5.8 5.6 5.7
6.4 6.4 6.6 6.9 6.8 6.8 7.0 7.2 7.6 7.8 7.8 8.5 8.7 8.7 7.9 7.3 7.1 6.9 7.0 6.9 7.1 6.7 6.7 7.0 7.6 7.2 7.4 7.8 7.8 8.1 8.6 8.8 9.1 8.5 7.5 8.1 8.1 6.8 7.4 7.4 6.8 6.7 6.2 6.2 5.7
6.5 6.7 7.0 6.9 6.8 6.9 7.7 8.1 8.1 7.9 8.3 8.8 9.0 8.6 8.4 7.7 7.6 7.3 7.1 7.3 7.0 6.9 6.9 7.1 7.3 7.5 7.5 7.7 7.9 8.4 8.4 8.6 7.7 7.5 7.0 8.4 7.3 7.9 7.7 7.5 7.4 7.5 6.7 6.5 6.2
6.8 7.0 7.0 7.0 7.2 7.3 7.7 7.9 7.7 7.7 8.6 8.6 8.7 8.8 8.4 8.2 8.2 7.9 7.6 7.8 7.6 7.4 7.3 7.5 7.8 7.7 7.8 7.7 7.9 8.4 8.5 8.6 7.9 7.0 8.1 8.0 7.6 7.6 7.2 7.1 6.8 6.6 6.6 6.2 6.2
6.9 7.2 7.4 7.6 7.4 7.6 7.9 8.2 8.1 8.0 8.2 8.2 8.9 9.2 9.1 9.2 9.2 8.6 8.5 9.0 9.0 8.5 7.8 7.6 7.9 8.2 7.9 7.9 8.3 8.2 8.3 8.7 8.6 8.7 8.5 7.0 6.5 6.6 6.9 6.7 6.6 6.6 6.9 7.0 7.4
7.1 7.2 7.7 7.9 7.8 7.8 8.0 8.2 8.3 8.4 8.2 8.2 8.3 8.3 8.6 8.8 9.0 9.2 9.0 8.6 8.7 8.6 8.4 7.7 7.6 7.9 8.2 8.2 8.3 8.2 8.4 8.7 8.4 7.6 7.4 6.5 6.3 5.8 6.6 7.1 7.0 6.7 6.6 7.1 7.3
7.2 7.3 7.6 7.7 7.9 7.9 8.0 8.1 7.8 8.2 8.4 8.4 8.3 8.1 8.5 8.6 8.3 8.5 8.1 8.4 8.2 8.4 8.4 7.9 7.9 8.3 8.2 8.2 8.4 8.3 8.4 8.3 8.5 8.5 7.0 5.9 5.9 6.6 7.4 7.1 6.6 6.7 6.7 7.0 7.1
7.2 7.4 7.4 7.4 7.7 8.0 8.4 8.2 8.3 8.3 8.4 8.5 8.2 8.3 8.1 8.4 8.3 8.4 8.0 8.1 8.2 8.3 8.4 8.2 7.9 7.9 8.0 8.4 8.5 8.4 8.8 8.7 8.4 8.4 7.9 7.2 5.6 6.4 6.7 7.0 7.0 7.0 7.2 7.2 7.1
7.4 7.7 7.8 7.6 7.9 8.1 8.3 8.3 8.4 8.3 8.2 8.2 8.1 8.0 8.3 8.1 8.0 8.0 8.1 8.0 8.3 8.4 8.4 8.2 8.0 8.0 8.6 8.9 8.7 8.4 8.4 8.3 8.2 8.2 8.2 7.5 5.8 6.4 6.8 7.2 7.1 7.0 7.0 7.2 7.1
7.5 7.6 7.6 7.7 8.0 8.1 8.3 8.3 8.2 8.0 8.1 8.3 8.1 8.2 7.9 8.1 8.0 8.0 7.9 7.9 8.0 8.0 8.2 8.5 8.0 7.8 7.3 7.3 7.5 7.8 8.3 8.3 8.1 8.1 8.1 7.7 6.9 6.7 7.1 7.2 6.9 6.9 6.5 6.7 7.1
7.6 7.4 7.7 7.9 8.0 8.0 8.2 8.1 8.2 7.9 7.8 7.8 7.5 7.8 7.9 7.9 8.0 7.9 7.9 7.9 7.7 7.7 8.1 8.4 8.2 7.9 7.7 7.0 7.3 7.5 8.0 8.2 8.3 8.2 8.0 7.7 7.5 7.4 7.1 6.8 6.9 6.5 6.4 6.6 6.9
7.5 7.5 7.9 7.8 7.7 7.8 7.7 7.8 7.9 7.7 7.8 7.6 7.5 7.7 8.0 8.0 7.9 8.0 8.0 7.9 7.8 8.0 8.2 7.8 7.9 8.0 7.4 7.4 7.4 7.4 7.6 8.2 8.6 8.5 7.5 7.4 7.1 6.6 6.2 5.9 5.9 6.0 6.1 6.3 6.8
7.4 7.6 7.7 7.6 7.8 7.8 7.5 7.7 7.7 7.4 7.4 7.4 7.4 7.5 7.5 7.7 8.2 8.4 7.8 7.9 8.0 7.9 8.2 8.0 7.7 7.8 7.4 7.2 7.4 7.8 7.5 7.8 8.0 8.1 8.0 7.7 7.3 6.9 6.4 6.3 5.8 5.4 5.4 5.3 6.1
Wind_Speed
14 14 14 14 14 14 14 14 14 14 14 14 14 14 15 16 17 2 6 10 9 10 4 2 5 4 2 3 1 3 1 1 3 11 10 8 5 4 4 18 18 5 19 20 23
14 14 14 15 14 14 15 15 14 14 14 14 14 14 14 15 4 9 11 14 15 15 5 7 6 5 3 5 1 2 2 3 4 7 15 14 10 6 4 16 9 20 18 24 23
15 15 15 15 16 15 15 15 15 15 15 14 14 14 15 13 4 7 10 21 18 18 5 4 2 3 4 3 4 2 3 6 6 12 15 13 10 7 6 6 17 24 25 21 22
16 16 16 15 15 15 15 15 16 15 16 15 15 14 14 2 3 3 8 24 14 14 3 3 3 4 4 7 5 3 4 3 8 14 14 12 16 9 2 2 17 20 25 22 21
15 15 15 16 15 14 16 15 16 15 15 16 13 11 4 0 9 4 8 19 9 7 7 6 5 4 5 3 6 2 4 2 9 14 13 16 13 8 11 5 11 22 22 19 19
16 17 16 15 17 16 15 16 16 16 15 13 9 5 1 2 5 11 10 8 6 7 7 7 6 8 6 6 10 8 9 10 7 13 10 13 10 9 3 4 18 20 22 18 18
17 17 18 18 17 17 16 16 16 17 14 9 6 2 2 11 3 8 7 6 4 7 6 12 7 1 6 7 7 4 6 13 14 10 7 16 6 9 16 14 21 17 14 19 21
17 17 17 17 18 17 17 16 16 15 11 7 4 2 7 6 13 2 5 3 6 6 6 2 3 5 6 4 2 4 3 5 10 14 14 5 8 4 6 12 17 18 12 9 14
16 16 16 17 17 17 17 17 17 11 6 5 4 2 9 11 7 9 10 6 5 5 6 10 3 6 3 2 4 1 5 3 5 18 10 2 10 11 9 6 17 16 10 9 14
18 16 15 15 15 16 19 20 7 4 2 6 6 3 6 4 4 6 9 7 4 3 3 3 2 1 4 4 5 6 4 2 9 16 7 7 10 18 16 12 17 16 11 11 12
18 17 17 16 13 13 9 2 3 1 3 8 7 5 8 4 2 5 7 7 3 4 5 3 3 6 7 6 6 3 4 4 8 16 8 7 15 19 14 6 15 13 12 11 14
19 18 16 14 13 9 2 2 6 3 7 15 15 11 13 1 3 7 9 6 5 5 3 5 5 7 6 7 7 6 3 1 6 10 7 10 9 6 8 12 15 16 13 13 11
20 17 15 14 12 1 3 7 6 7 3 8 7 6 6 9 7 9 10 6 6 6 5 6 6 7 6 8 8 7 4 4 6 9 7 13 6 9 8 4 10 11 13 14 18
19 17 15 19 3 2 5 7 7 6 4 7 3 6 4 7 4 8 7 6 2 9 5 6 6 6 9 10 7 8 8 8 14 5 6 2 4 7 7 10 12 11 12 11 15
19 15 12 4 4 2 7 7 6 4 3 12 3 3 2 6 7 4 6 3 5 6 6 8 5 7 9 16 8 11 6 8 10 7 7 2 4 6 9 12 9 7 7 4 11
18 15 11 2 2 8 13 11 4 5 3 9 2 3 4 2 1 2 7 4 2 2 3 8 7 8 10 11 12 10 2 3 4 4 3 7 5 3 13 16 15 5 8 11 9
21 17 6 3 5 3 6 4 5 4 6 6 5 5 4 7 5 5 6 4 5 2 3 5 5 7 5 7 5 4 6 1 1 1 5 9 8 7 11 17 18 16 17 11 9
22 18 9 6 9 5 4 5 7 3 6 6 8 10 8 7 7 6 7 4 5 4 2 2 6 6 3 9 7 5 8 5 5 4 5 8 4 4 6 7 7 4 7 3 1
26 2 3 5 9 3 5 5 4 4 6 5 11 8 6 5 4 6 9 5 5 5 7 1 4 4 4 5 8 3 3 7 2 1 2 5 4 7 11 12 13 12 11 8 8
2 3 4 5 17 5 5 2 3 4 3 2 6 6 4 7 6 5 3 3 3 4 2 3 3 1 7 1 2 7 4 2 3 2 3 3 3 2 2 5 8 10 9 8 10
3 3 5 13 5 4 2 4 5 4 6 2 4 5 4 4 5 5 4 4 4 7 6 4 4 8 3 1 8 4 2 5 4 4 5 5 1 4 6 5 6 5 6 7 8
2 2 3 3 3 1 1 4 1 6 6 7 3 3 4 6 5 5 4 4 7 3 3 1 3 2 4 6 4 5 2 5 5 4 2 4 2 4 10 7 5 4 6 7 6
2 3 5 5 1 2 5 1 4 6 5 7 6 4 4 3 4 3 3 4 7 6 2 4 3 3 9 6 9 6 5 4 2 2 5 6 4 5 10 9 6 6 5 5 5
1 3 4 4 1 6 4 4 3 5 5 4 3 7 7 7 6 5 6 3 3 3 2 3 4 5 4 3 1 5 11 6 5 3 3 4 10 8 11 11 8 8 9 6 6
2 3 4 1 4 4 6 4 9 5 7 10 10 5 5 4 4 5 5 6 3 7 3 4 2 2 6 7 5 3 8 14 2 5 4 11 14 16 13 13 9 9 11 10 8
3 3 5 3 4 7 6 6 7 4 4 5 7 9 6 4 2 1 1 5 2 6 5 6 2 3 6 6 9 7 14 12 6 9 11 14 9 12 11 12 9 9 10 10 9
3 3 4 4 4 5 1 3 5 5 6 7 5 5 7 3 2 3 1 1 2 2 5 4 3 3 1 4 3 5 7 8 5 6 16 8 9 16 15 14 14 13 12 11 9
Wind_Direction
343 342 340 337 336 333 333 332 330 330 332 333 332 331 329 326 316 175 238 222 186 191 133 171 205 222 196 238 230 89 15 300 171 142 143 150 124 312 318 136 148 144 139 139 132
337 335 334 332 330 329 328 328 327 327 329 330 330 328 328 331 293 250 235 219 217 185 181 190 197 172 208 200 334 104 129 262 210 122 147 161 159 188 121 149 148 121 130 136 139
334 331 330 327 325 325 324 324 324 324 326 328 326 326 325 325 302 248 210 208 210 182 208 200 212 178 210 195 187 140 187 16 157 141 154 148 123 138 99 200 163 144 151 146 147
330 329 325 322 321 320 319 319 318 320 321 322 323 322 319 275 238 296 304 192 190 175 203 189 230 208 237 191 153 157 215 277 152 150 156 144 128 145 100 169 168 141 151 152 158
323 321 320 318 315 314 315 314 313 314 317 319 322 324 350 26 251 261 106 163 143 154 190 196 206 178 214 202 136 220 96 71 203 163 152 134 141 151 190 242 167 141 160 159 162
322 319 317 313 310 310 309 310 309 307 310 312 313 327 198 280 248 156 134 143 170 167 193 187 211 200 241 215 209 173 128 126 243 188 142 129 139 144 212 198 166 159 155 164 170
323 321 318 314 310 308 307 306 303 303 303 301 293 240 297 236 299 139 141 182 186 180 172 218 237 282 350 321 274 194 103 163 208 180 118 117 145 157 165 197 166 175 174 169 177
326 324 319 313 311 309 306 301 298 299 294 280 226 227 245 233 236 253 201 205 202 224 232 252 197 264 211 263 57 98 4 158 193 173 164 140 141 92 356 168 173 175 184 171 156
327 324 322 318 316 313 305 295 293 290 285 179 131 201 265 304 172 219 171 179 184 249 268 272 334 223 7 66 47 230 216 165 133 183 150 153 128 183 274 217 176 185 189 170 137
329 327 324 322 319 314 307 294 268 305 191 180 257 330 279 248 195 158 192 156 167 170 330 230 186 167 48 79 205 187 191 157 156 189 143 105 144 183 196 192 187 189 181 180 135
333 334 331 328 325 326 340 49 43 50 243 193 198 239 281 259 213 200 179 142 165 120 178 228 105 206 218 205 232 287 315 312 126 140 115 163 166 192 201 190 197 197 185 175 147
336 335 334 330 324 334 315 247 213 148 296 228 234 236 267 342 254 226 126 149 146 193 186 15 212 226 222 258 261 273 287 13 73 148 96 160 172 239 201 210 212 199 182 163 136
330 323 326 321 318 320 211 234 258 56 319 290 202 201 224 154 224 224 144 172 156 184 172 168 232 212 219 264 263 265 212 208 145 97 94 145 158 194 227 208 210 219 178 168 156
328 328 329 319 295 303 248 253 263 135 42 280 194 265 223 152 184 194 166 154 138 187 203 211 239 220 230 250 222 253 216 228 150 138 174 203 230 221 166 199 186 198 170 165 169
327 321 323 340 285 273 242 330 322 74 6 336 206 251 126 122 150 238 191 111 171 177 121 238 224 207 223 233 190 239 233 204 186 158 107 267 82 297 138 208 183 173 156 134 180
319 315 319 162 226 242 323 315 48 49 287 317 198 207 114 315 211 358 170 120 103 238 303 236 240 172 216 238 231 234 74 52 68 118 125 203 139 258 188 189 170 152 150 172 176
315 306 284 289 243 26 343 23 53 59 344 305 351 336 190 198 239 152 166 179 156 108 301 285 258 238 190 239 328 128 73 350 43 138 203 172 184 225 206 173 175 174 202 184 178
320 305 232 231 257 5 41 51 70 211 263 276 279 271 190 173 216 169 147 182 223 119 32 264 308 180 209 184 196 165 149 155 182 183 224 140 190 310 42 113 103 59 57 359 315
319 126 239 252 197 127 62 52 183 177 256 286 328 35 6 329 180 123 168 197 200 166 180 264 267 340 339 215 131 270 144 184 79 18 41 141 142 43 66 65 71 69 67 41 47
7 350 260 216 137 76 70 268 200 226 256 232 26 8 45 10 48 56 99 325 38 23 238 222 270 271 296 279 209 141 188 68 6 186 210 21 69 149 111 69 69 65 54 34 34
13 4 263 132 90 54 119 239 260 264 211 88 25 24 24 49 40 27 357 13 19 355 32 44 83 303 359 101 202 26 57 58 119 130 165 142 4 279 114 90 96 81 76 49 36
10 344 221 59 69 95 171 209 327 4 10 8 80 81 41 27 37 46 51 38 4 9 22 42 114 291 258 280 251 149 128 134 134 246 99 119 133 83 112 112 96 78 76 68 50
331 258 328 101 134 282 293 50 74 27 18 20 16 32 61 74 67 43 37 13 32 48 91 324 5 21 349 15 11 34 358 86 146 82 182 138 179 120 125 125 125 97 72 76 83
79 350 327 45 188 110 79 357 114 25 25 29 0 56 60 33 5 41 10 15 44 77 200 92 54 126 164 237 284 338 347 22 112 91 153 152 140 172 145 139 143 119 111 99 80
111 271 208 298 335 48 78 56 59 21 21 16 18 27 111 56 51 25 328 358 33 348 26 85 50 359 69 353 7 324 350 348 330 181 151 182 156 167 149 146 142 140 136 117 101
68 40 345 343 1 80 28 344 93 38 65 353 63 57 54 82 125 127 208 38 94 335 31 357 0 21 41 308 1 10 5 1 12 108 70 107 78 137 141 134 136 134 130 125 123
321 331 97 301 21 86 312 64 51 113 37 74 57 72 47 44 195 241 112 187 235 60 12 58 80 53 53 311 157 18 334 347 346 52 140 153 167 149 146 147 149 140 136 126 120